Home   Weather   Fayetteville   Past weeks
Flag for USA

Past Weather in Fayetteville, Georgia, USA — Yesterday and Last 2 Weeks

Now
83 °F

Sunny.


Feels Like: 89 °F
Forecast: 89 / 74 °F
Wind: No wind

Location: Peachtree City-Falcon Field

Current Time: Jul 17, 2019 at 9:10:36 pm

Latest Report: Jul 17, 2019 at 7:53 pm


Visibility: 10 mi

Pressure: 30.05 "Hg

Humidity: 72%

Dew Point: 73 °F

Location of FayettevilleLocation

Past Weather in Fayetteville — Graph

°F

Fayetteville Temperature Yesterday

Maximum temperature yesterday: 94 °F (at 3:53 pm)
Minimum temperature yesterday: 72 °F (at 6:53 am)
Average temperature yesterday: 82 °F

High & Low Weather Summary for the Past Weeks

 TemperatureHumidityPressure
High95 °F (Jul 4, 2:53 pm)97% (Jul 6, 7:22 am)30.21 "Hg (Jul 6, 7:22 am)
Low72 °F (Jul 13, 6:53 am)37% (Jul 4, 2:53 pm)29.83 "Hg (Jul 8, 6:53 pm)
Average81 °F77%30.02 "Hg
* Reported Jul 2 7:53 pm — Jul 17 7:53 pm, Fayetteville. Weather by CustomWeather, © 2019

Note: Actual official high and low records may vary slightly from our data, if they occured in-between our weather recording intervals... More about our weather records

Advertising

Fayetteville Weather History for the Previous 24 Hours

Scroll right to see more
 ConditionsComfort  
Time TempWeatherWind HumidityBarometerVisibility
7:53 pm
Wed, Jul 17
83 °FSunny.No wind72%30.05 "Hg10 mi
6:53 pm83 °FSunny.3 mph72%30.07 "Hg10 mi
5:53 pm83 °FSunny.5 mph74%30.08 "Hg10 mi
4:53 pm81 °FBroken clouds.8 mph79%30.09 "Hg10 mi
3:53 pm91 °FPassing clouds.9 mph49%30.09 "Hg10 mi
3:20 pm93 °FThundershowers. Sunny.10 mph46%30.09 "Hg10 mi
2:53 pm92 °FSunny.10 mph47%30.09 "Hg10 mi
1:53 pm91 °FSunny.8 mph50%30.11 "Hg10 mi
12:53 pm90 °FScattered clouds.9 mph54%30.12 "Hg10 mi
11:53 am88 °FSunny.8 mph57%30.14 "Hg10 mi
10:53 am87 °FSunny.10 mph63%30.14 "Hg10 mi
9:53 am85 °FSunny.6 mph72%30.13 "Hg10 mi
8:53 am81 °FSunny.6 mph79%30.12 "Hg10 mi
7:53 am77 °FSunny.No wind88%30.10 "Hg10 mi
6:53 am74 °FSunny.No wind94%30.09 "Hg8 mi
5:53 am74 °FClear.No wind94%30.09 "Hg9 mi
4:53 am74 °FPassing clouds.No wind94%30.09 "Hg9 mi
3:53 am74 °FClear.No wind94%30.08 "Hg9 mi
2:53 am75 °FClear.No wind90%30.09 "Hg10 mi
1:53 am76 °FClear.No wind88%30.09 "Hg10 mi
12:53 am76 °FClear.3 mph91%30.10 "Hg10 mi
11:53 pm
Tue, Jul 16
78 °FClear.No wind87%30.11 "Hg10 mi
10:53 pm79 °FClear.No wind88%30.11 "Hg10 mi
9:53 pm80 °FClear.No wind87%30.09 "Hg10 mi
Weather by CustomWeather, © 2019

See weather overview